This is the latest recevied weather packets stored in our database for station/object F1ZRP-13. If no packets are shown the sender has not sent any weather packets the latest 1 day(s).
| Time | Temp. | Humidity | Pressure | Rain* | Wind** | Luminosity | Snow |
|---|---|---|---|---|---|---|---|
| 1778049888 | 11.11° C | 96% | 1006.9 hPa | - | - | - | - |
| 1778047250 | 10.56° C | 96% | 1006.7 hPa | - | - | - | - |
| 1778042745 | 10.56° C | 96% | 1006.4 hPa | - | - | - | - |
| 1778041882 | 10.56° C | 96% | 1006.5 hPa | - | - | - | - |
| 1778040062 | 10.56° C | 96% | 1006.6 hPa | - | - | - | - |
| 1778038698 | 10.56° C | 96% | 1006.8 hPa | - | - | - | - |
| 1778038094 | 10.56° C | 96% | 1006.8 hPa | - | - | - | - |
| 1778037236 | 10.56° C | 96% | 1007 hPa | - | - | - | - |
| 1778036276 | 10.56° C | 96% | 1007.1 hPa | - | - | - | - |
| 1778035365 | 10.56° C | 96% | 1007 hPa | - | - | - | - |
| 1778034360 | 10.56° C | 96% | 1007 hPa | - | - | - | - |
| 1778033223 | 11.11° C | 96% | 1007 hPa | - | - | - | - |
| 1778032356 | 11.11° C | 96% | 1006.9 hPa | - | - | - | - |
| 1778031348 | 11.11° C | 96% | 1007 hPa | - | - | - | - |
| 1778029258 | 11.11° C | 96% | 1007.4 hPa | - | - | - | - |
| 1778028346 | 11.67° C | 96% | 1007.6 hPa | - | - | - | - |
| 1778027374 | 11.67° C | 96% | 1007.7 hPa | - | - | - | - |
| 1778024647 | 11.11° C | 96% | 1008 hPa | - | - | - | - |
| 1778023769 | 11.11° C | 96% | 1008.1 hPa | - | - | - | - |
| 1778021820 | 11.67° C | 96% | 1008.1 hPa | - | - | - | - |
| 1778020017 | 12.22° C | 96% | 1008.1 hPa | - | - | - | - |
| 1778019133 | 12.22° C | 96% | 1008.2 hPa | - | - | - | - |
* Rain since midnight (hover to see other rain measurements)
** Current wind speed in m/s (hover to see current wind gust speed)